[[{"header":{"parameterUnit":"m.s-1","parameterCategory":1,"la1":30.2992,"la2":30.254,"lo1":-89.0895,"lo2":-89.0443,"dy":0.0025,"dx":0.0025,"nx":19,"ny":19,"refTime":"2026-04-22T09:00:00:Z","depth":0,"parameterNumber":2,"parameterNumberName":"U-component_of_WINDS"},"data":[0,0,0,-4.0241,-4.0242,-4.0274,-4.0274,-4.0327,-4.0328,0,0,0,0,0,0,0,0,0,0,0,-4.0239,-4.0239,-4.0241,-4.0242,-4.0274,-4.0274,-4.0327,-4.0328,0,0,0,0,0,0,0,0,0,0,0,-4.0238,-4.0239,-4.024,-4.0242,-4.0274,-4.0274,-4.0327,-4.0298,0,0,0,0,0,0,0,0,0,0,-4.0265,-4.027,-4.0239,-4.024,-4.0242,-4.0274,-4.0274,-4.0297,-4.03,-4.0318,0,-4.0336,0,-4.0333,-4.0332,-4.0333,0,0,0,-4.0236,-4.0268,-4.027,-4.024,-4.0242,-4.0274,-4.0258,-4.0298,-4.0302,-4.0323,-4.0337,-4.0338,-4.0334,-4.0333,-4.0333,-4.0457,-4.0458,0,0,-4.0234,-4.0248,-4.0267,-4.0273,-4.0269,-4.0257,-4.0259,-4.0301,-4.0317,-4.0337,-4.0339,-4.0335,-4.0333,-4.0334,-4.0456,-4.0457,0,0,0,-4.0233,-4.0247,-4.0248,-4.0271,-4.0276,-4.0258,-4.026,-4.0315,-4.0314,-4.034,-4.0336,-4.0334,-4.0334,-4.0455,-4.0456,-4.0511,0,0,0,-4.0232,-4.0247,-4.0248,-4.0257,-4.0275,-4.0296,-4.0274,-4.0311,-4.0315,-4.0335,-4.0334,-4.0335,-4.0454,-4.0456,-4.0508,-4.0534,0,0,0,-4.0234,-4.0247,-4.0254,-4.0257,-4.0272,-4.0295,-4.0296,-4.0312,-4.0313,-4.0333,-4.0335,-4.0453,-4.0455,-4.0505,-4.0529,-4.057,0,0,0,-4.024,-4.0302,-4.0255,-4.0323,-4.0272,-4.0329,-4.0296,-4.0338,-4.0361,-4.0334,-4.0454,-4.0456,-4.0504,-4.0526,-4.0567,-4.0606,-4.0624,0,0,-4.0326,-4.0313,-4.0352,-4.0311,-4.038,-4.0323,-4.0401,-4.0409,-4.0398,-4.0438,-4.0441,-4.0509,-4.0529,-4.0569,-4.0725,-4.0739,0,0,0,-4.0384,-4.0412,-4.0427,-4.0451,-4.0459,-4.0468,-4.0463,-4.0466,-4.05,-4.0421,-4.0536,-4.0547,-4.057,-4.0588,-4.06,-4.0619,-4.0466,-4.0465,-4.0465,-4.0524,-4.0507,-4.057,-4.0558,-4.0582,-4.0577,-4.0594,-4.0597,-4.0573,-4.0601,-4.0611,-4.0707,-4.0729,-4.0738,-4.0758,-4.0632,-4.0633,-4.0633,-4.0633,-4.0646,-4.0683,-4.0651,-4.0701,-4.0683,-4.0724,-4.0723,-4.0705,-4.074,-4.0698,-4.0717,-4.067,-4.0755,-4.0771,-4.0637,-4.0636,-4.0636,-4.0635,-4.0635,-4.0734,-4.0749,-4.0753,-4.0786,-4.0814,-4.08,-4.0836,-4.0819,-4.0803,-4.0823,-4.0832,-4.0831,-4.0826,-4.0829,-4.0829,-4.083,-4.083,-4.083,-4.083,-4.0823,-4.0826,-4.0858,-4.0874,-4.0888,-4.0903,-4.0901,-4.0913,-4.0923,-4.0907,-4.0907,-4.088,-4.0767,-4.0738,-4.0835,-4.0835,-4.0834,-4.0833,-4.0833,-4.0949,-4.0918,-4.0969,-4.0983,-4.1,-4.1029,-4.1008,-4.1036,-4.1044,-4.1062,-4.1032,-4.0952,-4.0936,-4.0927,-4.0902,-4.1036,-4.1036,-4.1036,-4.1036,-4.1022,-4.1014,-4.1061,-4.1085,-4.1106,-4.1093,-4.115,-4.115,-4.1144,-4.1148,-4.1127,-4.1094,-4.1085,-4.1075,-4.1061,-4.1038,-4.1204,-4.1204,-4.1204,-4.1098,-4.1091,-4.1143,-4.1138,-4.1152,-4.1163,-4.1217,-4.1244,-4.1232,-4.1211,-4.1151,-4.1143,-4.109,-4.1074,-4.1048,-4.1028,-4.0985,0,0]},{"header":{"parameterUnit":"m.s-1","parameterCategory":1,"la1":30.2992,"la2":30.254,"lo1":-89.0895,"lo2":-89.0443,"dy":0.0025,"dx":0.0025,"nx":19,"ny":19,"refTime":"2026-04-22T09:00:00:Z","depth":0,"parameterNumber":3,"parameterNumberName":"V-component_of_WINDS"},"data":[0,0,0,3.8059,3.806,3.8091,3.8091,3.8134,3.8134,0,0,0,0,0,0,0,0,0,0,0,3.8052,3.8053,3.8059,3.806,3.8091,3.8091,3.8133,3.8134,0,0,0,0,0,0,0,0,0,0,0,3.8052,3.8053,3.8053,3.806,3.8091,3.8091,3.8133,3.8109,0,0,0,0,0,0,0,0,0,0,3.8078,3.8074,3.8053,3.8053,3.8061,3.8091,3.8091,3.8108,3.811,3.8121,0,3.8131,0,3.8133,3.8137,3.8137,0,0,0,3.8058,3.8072,3.8078,3.8053,3.8061,3.8091,3.8077,3.8109,3.8112,3.8124,3.8132,3.8133,3.8134,3.8137,3.8138,3.8206,3.8207,0,0,3.8056,3.8059,3.8076,3.808,3.8077,3.8076,3.8078,3.8111,3.8119,3.8132,3.8134,3.8135,3.8138,3.8138,3.8206,3.8207,0,0,0,3.8053,3.8058,3.8063,3.8079,3.8084,3.8077,3.8079,3.8117,3.8119,3.8135,3.8135,3.8138,3.8138,3.8206,3.8206,3.8229,0,0,0,3.8052,3.8056,3.8063,3.8065,3.8084,3.8101,3.8085,3.8117,3.812,3.8135,3.8138,3.8139,3.8205,3.8206,3.8227,3.8239,0,0,0,3.805,3.8055,3.8061,3.8065,3.8078,3.8101,3.8104,3.8117,3.8121,3.8137,3.8139,3.8205,3.8206,3.8226,3.8237,3.8258,0,0,0,3.8048,3.808,3.8061,3.8098,3.8078,3.8115,3.8104,3.8132,3.8148,3.8138,3.8205,3.8206,3.8226,3.8235,3.8256,3.8275,3.8284,0,0,3.809,3.8085,3.8107,3.8091,3.8132,3.811,3.8155,3.8167,3.8166,3.8193,3.8195,3.8228,3.8236,3.8257,3.8332,3.8339,0,0,0,3.8121,3.8136,3.8147,3.8163,3.8175,3.8185,3.8191,3.8195,3.8218,3.8181,3.8242,3.8247,3.8259,3.8268,3.8273,3.8283,3.8211,3.8211,3.821,3.8183,3.8181,3.8216,3.8218,3.8234,3.8241,3.8254,3.8261,3.8253,3.8268,3.8275,3.8321,3.8332,3.8336,3.8346,3.8286,3.8286,3.8286,3.8286,3.8244,3.8265,3.8256,3.8286,3.8284,3.8309,3.8317,3.8311,3.8334,3.8315,3.8325,3.8304,3.8343,3.8352,3.8288,3.8288,3.8287,3.8287,3.8287,3.8283,3.8293,3.83,3.8324,3.8343,3.8344,3.8367,3.8364,3.8361,3.8372,3.8379,3.8379,3.8377,3.8376,3.8376,3.8376,3.8376,3.8376,3.8376,3.8321,3.8328,3.8348,3.8364,3.8375,3.8388,3.8396,3.8406,3.8416,3.8412,3.8412,3.8403,3.8348,3.8334,3.8379,3.8378,3.8378,3.8378,3.8378,3.8382,3.8369,3.84,3.8411,3.8429,3.8448,3.8445,3.8466,3.8474,3.8485,3.8474,3.8435,3.8429,3.8425,3.8413,3.8475,3.8475,3.8475,3.8475,3.8415,3.8413,3.8444,3.8462,3.8479,3.848,3.8514,3.8521,3.8525,3.853,3.852,3.8505,3.85,3.8498,3.8491,3.848,3.8558,3.8559,3.8559,3.8452,3.8452,3.8482,3.8487,3.8502,3.8514,3.8547,3.8567,3.8569,3.8562,3.8533,3.853,3.8504,3.8497,3.8488,3.8478,3.8457,0,0]}]]